TimePST,TemperatureF,Dew PointF,Humidity,Sea Level PressureIn,VisibilityMPH,Wind Direction,Wind SpeedMPH,Gust SpeedMPH,PrecipitationIn,Events,Conditions,WindDirDegrees,DateUTC
12:53 AM,26.1,18.0,71,30.28,10.0,Variable,3.5,-,N/A,,Clear,0,2013-02-14 08:53:00
1:53 AM,25.0,18.0,75,30.30,10.0,Calm,Calm,-,N/A,,Clear,0,2013-02-14 09:53:00
2:53 AM,25.0,18.0,75,30.29,10.0,West,3.5,-,N/A,,Clear,260,2013-02-14 10:53:00
3:53 AM,23.0,17.1,78,30.31,10.0,Variable,3.5,-,N/A,,Clear,0,2013-02-14 11:53:00
4:53 AM,24.1,18.0,77,30.30,10.0,Calm,Calm,-,N/A,,Clear,0,2013-02-14 12:53:00
5:53 AM,24.1,17.1,75,30.32,10.0,SSW,3.5,-,N/A,,Clear,200,2013-02-14 13:53:00
6:53 AM,21.9,16.0,78,30.37,10.0,South,3.5,-,N/A,,Clear,180,2013-02-14 14:53:00
7:53 AM,24.1,18.0,77,30.38,10.0,Calm,Calm,-,N/A,,Clear,0,2013-02-14 15:53:00
8:53 AM,30.0,21.0,69,30.37,10.0,SSW,3.5,-,N/A,,Clear,210,2013-02-14 16:53:00
9:53 AM,43.0,23.0,45,30.35,10.0,Calm,Calm,-,N/A,,Clear,0,2013-02-14 17:53:00
10:53 AM,46.0,24.1,42,30.35,10.0,Variable,3.5,-,N/A,,Clear,0,2013-02-14 18:53:00
11:53 AM,46.9,23.0,39,30.32,10.0,Variable,5.8,17.3,N/A,,Clear,0,2013-02-14 19:53:00
12:53 PM,50.0,19.9,31,30.30,10.0,Variable,3.5,-,N/A,,Clear,0,2013-02-14 20:53:00
1:53 PM,51.1,18.0,27,30.28,10.0,Variable,4.6,-,N/A,,Clear,0,2013-02-14 21:53:00
2:53 PM,48.9,21.9,35,30.30,10.0,Calm,Calm,-,N/A,,Clear,0,2013-02-14 22:53:00
3:53 PM,50.0,19.9,31,30.31,10.0,NNE,5.8,-,N/A,,Clear,20,2013-02-14 23:53:00
4:53 PM,44.1,24.1,45,30.33,10.0,Variable,5.8,-,N/A,,Clear,0,2013-02-15 00:53:00
5:53 PM,43.0,23.0,45,30.35,10.0,Calm,Calm,-,N/A,,Clear,0,2013-02-15 01:53:00
6:53 PM,37.0,24.1,59,30.40,10.0,Calm,Calm,-,N/A,,Clear,0,2013-02-15 02:53:00
7:53 PM,34.0,23.0,64,30.42,10.0,Calm,Calm,-,N/A,,Clear,0,2013-02-15 03:53:00
8:53 PM,30.9,21.9,69,30.42,10.0,Variable,3.5,-,N/A,,Clear,0,2013-02-15 04:53:00
9:53 PM,28.9,21.9,75,30.39,10.0,Calm,Calm,-,N/A,,Clear,0,2013-02-15 05:53:00
10:53 PM,28.0,21.0,75,30.40,10.0,South,3.5,-,N/A,,Clear,190,2013-02-15 06:53:00
11:53 PM,27.0,21.0,78,30.39,10.0,SSW,3.5,-,N/A,,Clear,200,2013-02-15 07:53:00